AirNav   Air Wisconsin Up To $57,000 Bonus
 
 298 users online  

61K Sedan City Airport
Sedan, Kansas, USA

GOING TO SEDAN?


FAA INFORMATION EFFECTIVE 10 OCTOBER 2019

Location

FAA Identifier: 61K
Lat/Long: 37-08-54.1870N 096-11-06.9710W
37-08.903117N 096-11.116183W
37.1483853,-96.1852697
(estimated)
Elevation: 1005 ft. / 306 m (estimated)
Variation: 06E (1985)
From city: 2 miles N of SEDAN, KS
Time zone: UTC -5 (UTC -6 during Standard Time)
Zip code: 67361

Airport Operations

Airport use: Open to the public
Activation date: 08/1968
Control tower: no
ARTCC: KANSAS CITY CENTER
FSS: WICHITA FLIGHT SERVICE STATION
NOTAMs facility: ICT (NOTAM-D service available)
Attendance: UNATNDD
Wind indicator: lighted
Segmented circle: yes
SEGMENTED CIRCLE NSTD.
Lights: ACTVT LIRL RY 18/36 - CTAF.

Airport Communications

CTAF: 122.9
WX AWOS-3 at IDP (19 nm E): 118.525 (620-331-5980)

Nearby radio navigation aids

VOR radial/distance  VOR name  Freq  Var
BVOr329/20.5BARTLESVILLE VOR/DME117.9008E

 
NDB name  Hdg/Dist  Freq  Var  ID
COFFEYVILLE271/29.621205ECFV -.-. ..-. ...-

Airport Services

Parking: tiedowns
Airframe service: NONE
Powerplant service: NONE
Bottled oxygen: NONE
Bulk oxygen: NONE

Runway Information

Runway 18/36

Dimensions: 3160 x 81 ft. / 963 x 25 m
Surface: turf, in fair condition
Runway edge lights: low intensity
RUNWAY 18  RUNWAY 36
Latitude: 37-09.236333N37-08.721667N
Longitude: 096-11.066167W096-11.165833W
Traffic pattern: leftleft
Obstructions: 24 ft. trees, 115 ft. from runway, 100 ft. left of centerline, 4:1 slope to clear10 ft. trees, 110 ft. from runway, 2 ft. left of centerline, 11:1 slope to clear

Runway 12/30

Dimensions: 1790 x 95 ft. / 546 x 29 m
Surface: turf, in fair condition
RUNWAY 12  RUNWAY 30
Traffic pattern: leftleft
Obstructions: 4 ft. fence
ROAD 20 FT FM RY END; PLINE AT 450 FT.
10 ft. trees, 15 ft. from runway, 12 ft. right of centerline, 1:1 slope to clear

Airport Ownership and Management from official FAA records

Ownership: Privately-owned
Owner: CITY OF SEDAN
CITY HALL
SEDAN, KS 67361
Phone 620-725-3193
LEASED TO CITY OF SEDAN.
Manager: JOHN MILLER
CITY HALL
SEDAN, KS 67361
Phone (620) 550-1195
HOME NUMBER (620) 725-3429

Airport Operational Statistics

Aircraft operations: avg 25/month *
67% local general aviation
33% transient general aviation
* for 12-month period ending 11 September 2018

Additional Remarks

WILDLIFE AND LIVESTOCK IN THE VICINITY AND POSSIBLY ON THE RY.
FOR CD CTC KANSAS CITY ARTCC AT 913-254-8508.

Instrument Procedures

There are no published instrument procedures at 61K.

Some nearby airports with instrument procedures:

KIDP - Independence Municipal Airport (19 nm E)
KBVO - Bartlesville Municipal Airport (25 nm S)
KCFV - Coffeyville Municipal Airport (30 nm E)
2K7 - Neodesha Municipal Airport (31 nm NE)
KPPF - Tri-City Airport (34 nm E)
 
Loc | Ops | Rwys | IFR | FBO | Links
Com | Nav | Svcs | Stats | Notes

Kansas City Aviation Department
 
Area around 61K (Sedan City Airport)
 
Road maps at: MapQuest Bing Google
 
Aerial photo
WARNING: Photo may not be current or correct
Aerial photo of 61K (Sedan City Airport)
Do you have a better or more recent aerial photo of Sedan City Airport that you would like to share? If so, please send us your photo.

 
Sectional chart

 
Airport distance calculator
Flying to Sedan City Airport? Find the distance to fly.

From to 61K

Sunrise and sunset
Times for 22-Oct-2019
 Local
(UTC-5)
 Zulu
(UTC)
Morning civil twilight07:1412:14
Sunrise07:4012:40
Sunset18:3823:38
Evening civil twilight19:0500:05

Current date and time
Zulu (UTC)  22-Oct-2019 09:37:03
Local (UTC-5)  22-Oct-2019 04:37:03
 
METAR
KIDP 
19nm E 
220915Z AUTO 27008KT 10SM CLR 06/M01 A3006 RMK AO2 T00621012
KBVO 
24nm S 
220853Z AUTO VRB05KT 10SM CLR 08/M02 A3008 RMK AO2 SLP181 T00781017 51015
KCFV 
30nm E 
220852Z AUTO 26007KT 10SM CLR 07/M01 A3004 RMK AO2 SLP171 T00721006 51016
KPPF 
35nm E 
220852Z AUTO 26005KT 10SM CLR 06/00 A3004 RMK AO2 SLP170 T00560000 53014
TAF
KBVO 
24nm S 
220520Z 2206/2306 29005KT P6SM SKC FM221500 26010G16KT P6SM SKC FM222300 23005KT P6SM SKC
NOTAMs
Click for the latest NOTAMs
NOTAMs are issued by the DoD/FAA and will open in a separate window not controlled by AirNav.

 

 
 

Would you like to see your business listed on this page?

 If your business provides an interesting product or service to pilots, flight crews, aircraft, or users of the Sedan City Airport, you should consider listing it here.  To start the listing process, click on the button below
 
Add a business
 

Other Pages about Sedan City Airport

Update a link
 
Copyright © AirNav, LLC. All rights reserved. Privacy Policy  Contact